This demonstration page uses our WeatherBlox Daily Observations layout. Learn more.

Left ArrowRight Arrow

Hourly Observations for January 24, 2015

Temp ( °F °C ) Dew Point ( °F °C ) Humidity (%) Winds ( mph kmh ) Pressure ( in mb ) Visibility ( mi km ) Precip ( " mm )
12:15 am 00:15 Cloudy 28 -2 19 -7 69 69 WNW 12 19 29.94 1014 10 16.0934 N/A
12:35 am 00:35 Cloudy 28 -2 19 -7 69 69 WNW 10 17 29.94 1014 10 16.0934 N/A
12:55 am 00:55 Cloudy 28 -2 19 -7 69 69 W 9 15 29.94 1014 10 16.0934 N/A
1:15 am 01:15 Cloudy 28 -2 19 -7 69 69 W 9 15 29.91 1013 10 16.0934 N/A
1:36 am 01:36 Cloudy 28 -2 18 -8 64 64 WNW 10 17 29.91 1013 10 16.0934 N/A
1:55 am 01:55 Cloudy 28 -2 18 -8 64 64 WNW 9 15 29.91 1013 10 16.0934 N/A
2:15 am 02:15 Cloudy 28 -2 18 -8 64 64 W 7 11 29.88 1012 10 16.0934 N/A
2:36 am 02:36 Cloudy 28 -2 18 -8 64 64 W 8 13 29.88 1012 10 16.0934 N/A
2:55 am 02:55 Cloudy 28 -2 19 -7 69 69 W 6 9 29.88 1012 10 16.0934 N/A
3:16 am 03:16 Cloudy 28 -2 19 -7 69 69 WSW 6 9 29.88 1012 10 16.0934 N/A
3:35 am 03:35 Cloudy 28 -2 19 -7 69 69 SW 5 7 29.88 1012 10 16.0934 N/A
3:55 am 03:55 Partly Cloudy 27 -3 19 -7 74 74 SW 6 9 29.88 1012 10 16.0934 N/A
4:16 am 04:16 Clear 27 -3 19 -7 74 74 SSW 5 7 29.85 1011 10 16.0934 N/A
4:35 am 04:35 Clear 27 -3 19 -7 74 74 SSW 6 9 29.85 1011 10 16.0934 N/A
4:56 am 04:56 Clear 27 -3 19 -7 74 74 SSW 6 9 29.85 1011 10 16.0934 N/A
5:15 am 05:15 Clear 27 -3 19 -7 74 74 SSW 7 11 29.85 1011 10 16.0934 N/A
5:35 am 05:35 Clear 27 -3 19 -7 74 74 SW 7 11 29.83 1010 10 16.0934 N/A
5:56 am 05:56 Clear 27 -3 19 -7 74 74 SW 8 13 29.83 1010 10 16.0934 N/A
6:15 am 06:15 Clear 27 -3 19 -7 74 74 SW 7 11 29.83 1010 10 16.0934 N/A
6:36 am 06:36 Partly Cloudy 27 -3 19 -7 74 74 WSW 8 13 29.83 1010 10 16.0934 N/A
6:55 am 06:55 Partly Cloudy 27 -3 19 -7 74 74 SW 8 13 29.83 1010 10 16.0934 N/A
7:15 am 07:15 Clear 27 -3 19 -7 74 74 SW 9 15 29.83 1010 10 16.0934 N/A
7:36 am 07:36 Clear 27 -3 19 -7 74 74 SW 8 13 29.83 1010 7 11.26538 N/A
7:55 am 07:55 Clear 27 -3 19 -7 74 74 SW 9 15 29.83 1010 7 11.26538 N/A
8:15 am 08:15 Sunny 27 -3 19 -7 74 74 SW 8 13 29.83 1010 7 11.26538 N/A
8:35 am 08:35 Sunny 27 -3 19 -7 74 74 SW 8 13 29.83 1010 5 8.0467 N/A
8:55 am 08:55 Sunny 28 -2 19 -7 69 69 SW 8 13 29.83 1010 7 11.26538 N/A
9:16 am 09:16 Sunny 28 -2 19 -7 69 69 SW 7 11 29.83 1010 7 11.26538 N/A
9:35 am 09:35 Sunny 30 -1 21 -6 69 69 WSW 9 15 29.83 1010 7 11.26538 N/A
9:56 am 09:56 Sunny 32 0 21 -6 64 64 WSW 10 17 29.83 1010 7 11.26538 N/A
10:15 am 10:15 Sunny 32 0 21 -6 64 64 WSW 8 13 29.8 1009 7 11.26538 N/A
10:35 am 10:35 Partly Cloudy 32 0 21 -6 64 64 W 10 17 29.83 1010 7 11.26538 N/A
10:55 am 10:55 Partly Cloudy 34 1 21 -6 60 60 W 13 20 29.8 1009 7 11.26538 N/A
11:15 am 11:15 Partly Cloudy 34 1 21 -6 60 60 W 12 19 29.77 1008 7 11.26538 N/A
11:36 am 11:36 Mostly Cloudy 34 1 21 -6 60 60 WSW 10 17 29.77 1008 7 11.26538 N/A
11:55 am 11:55 Mostly Cloudy 34 1 21 -6 60 60 W 12 19 29.77 1008 7 11.26538 N/A
12:15 pm 12:15 Cloudy 34 1 21 -6 60 60 W 12 19 29.77 1008 7 11.26538 N/A
12:35 pm 12:35 Cloudy 34 1 21 -6 60 60 W 13 20 29.77 1008 7 11.26538 N/A
12:55 pm 12:55 Cloudy 34 1 23 -5 65 65 W 13 20 29.77 1008 7 11.26538 N/A
1:16 pm 13:16 Cloudy 34 1 23 -5 65 65 W 13 20 29.74 1007 7 11.26538 N/A
1:35 pm 13:35 Cloudy 34 1 23 -5 65 65 W 12 19 29.74 1007 7 11.26538 N/A
1:55 pm 13:55 Cloudy 36 2 23 -5 60 60 W 14 22 29.74 1007 7 11.26538 N/A
2:16 pm 14:16 Cloudy 37 3 23 -5 56 56 W 14 22 29.74 1007 7 11.26538 N/A
2:35 pm 14:35 Mostly Cloudy 37 3 23 -5 56 56 W 13 20 29.74 1007 10 16.0934 N/A
2:55 pm 14:55 Partly Cloudy 39 4 25 -4 56 56 W 12 19 29.74 1007 10 16.0934 N/A
3:15 pm 15:15 Partly Cloudy 39 4 23 -5 52 52 WSW 12 19 29.74 1007 10 16.0934 N/A
3:35 pm 15:35 Partly Cloudy 41 5 23 -5 49 49 W 12 19 29.71 1006 10 16.0934 N/A
3:56 pm 15:56 Sunny 41 5 23 -5 49 49 W 12 19 29.71 1006 10 16.0934 N/A
4:15 pm 16:15 Sunny 41 5 23 -5 49 49 W 13 20 29.71 1006 10 16.0934 N/A
4:35 pm 16:35 Sunny 39 4 25 -4 56 56 WSW 14 22 29.74 1007 10 16.0934 N/A
4:56 pm 16:56 Sunny 39 4 23 -5 52 52 W 12 19 29.74 1007 10 16.0934 N/A
5:15 pm 17:15 Sunny 39 4 25 -4 56 56 SW 7 11 29.74 1007 10 16.0934 N/A
5:35 pm 17:35 Sunny 37 3 25 -4 60 60 WSW 9 15 29.74 1007 10 16.0934 N/A
5:55 pm 17:55 Clear 36 2 25 -4 65 65 WSW 8 13 29.77 1008 10 16.0934 N/A
6:15 pm 18:15 Clear 36 2 25 -4 65 65 SW 7 11 29.77 1008 10 16.0934 N/A
6:35 pm 18:35 Clear 36 2 25 -4 65 65 SW 6 9 29.77 1008 10 16.0934 N/A
6:55 pm 18:55 Mostly Cloudy 36 2 25 -4 65 65 SSW 5 7 29.77 1008 10 16.0934 N/A
7:15 pm 19:15 Cloudy 36 2 25 -4 65 65 SSW 6 9 29.77 1008 10 16.0934 N/A
7:36 pm 19:36 Cloudy 36 2 25 -4 65 65 SSW 6 9 29.8 1009 10 16.0934 N/A
7:55 pm 19:55 Mostly Cloudy 36 2 25 -4 65 65 SSW 6 9 29.8 1009 10 16.0934 N/A
8:15 pm 20:15 Partly Cloudy 36 2 25 -4 65 65 SSW 6 9 29.8 1009 10 16.0934 N/A
8:36 pm 20:36 Clear 34 1 25 -4 70 70 S 5 7 29.8 1009 10 16.0934 N/A
8:55 pm 20:55 Clear 34 1 25 -4 70 70 SSW 6 9 29.8 1009 10 16.0934 N/A
9:15 pm 21:15 Clear 34 1 25 -4 70 70 SSW 6 9 29.8 1009 10 16.0934 N/A
9:36 pm 21:36 Clear 34 1 25 -4 70 70 S 6 9 29.77 1008 10 16.0934 N/A
9:55 pm 21:55 Clear 34 1 25 -4 70 70 S 7 11 29.77 1008 10 16.0934 N/A
10:15 pm 22:15 Clear 32 0 25 -4 75 75 S 7 11 29.8 1009 10 16.0934 N/A
10:36 pm 22:36 Clear 32 0 25 -4 75 75 S 7 11 29.8 1009 10 16.0934 N/A
10:55 pm 22:55 Clear 32 0 27 -3 80 80 S 7 11 29.8 1009 10 16.0934 N/A
11:15 pm 23:15 Clear 32 0 27 -3 80 80 S 6 9 29.8 1009 10 16.0934 N/A
11:35 pm 23:35 Clear 32 0 27 -3 80 80 SSW 6 9 29.8 1009 10 16.0934 N/A
11:55 pm 23:55 Clear 32 0 28 -2 87 87 SSW 6 9 29.8 1009 10 16.0934 N/A

Powered by AerisWeather